Home > Weather > Zittau > Past weeks

Flag for Germany Past Weather in Zittau, Saxony, Germany — Yesterday and Last 2 Weeks

Now
76 °F

Scattered clouds.


Feels Like: 78 °F
Forecast: 60 / 75 °F
Wind: 3 mph from Southwest

Location: Liberec

Current Time: Jul 30, 2016 at 5:04:49 PM

Latest Report: Jul 30, 2016 at 4:00 PM


Visibility: 28 mi

Pressure: 29.87 "Hg

Humidity: 44%

Dew Point: 52 °F

Location of ZittauLocation

Past Weather in Zittau — Graph

°F

Zittau Temperature Yesterday

Maximum temperature yesterday: 73 °F (at 5:00 PM)
Minimum temperature yesterday: 62 °F (at 2:00 AM)
Average temperature yesterday: 66 °F

High & Low Weather Summary for the Past Weeks

 TemperatureHumidityPressure
High81 °F (Jul 23, 4:00 PM)98% (Jul 18, 12:00 AM)30.29 "Hg (Jul 18, 12:00 AM)
Low47 °F (Jul 17, 2:00 AM)38% (Jul 23, 1:00 PM)29.88 "Hg (Jul 29, 6:00 PM)
Average65 °F74%30.05 "Hg
* Reported Jul 15 3:00 PM — Jul 30 3:00 PM, Zittau, Weather by CustomWeather, © 2016

Note: Actual official high and low records may vary slightly from our data, if they occured in-between our weather recording intervals... More about our weather records

Advertising

Zittau Weather History for the Previous 24 Hours

Scroll right to see more
 ConditionsComfort  
Time TempWeatherWind HumidityBarometerVisibility
3:00 PM
Sat, Jul 30
72 °FPartly sunny.3 mph55%29.89 "Hg25 mi
2:00 PM75 °FPartly sunny.6 mph46%29.90 "Hg25 mi
1:00 PM76 °FPartly sunny.5 mph43%29.89 "Hg25 mi
12:00 PM74 °FScattered clouds.3 mph49%29.90 "Hg25 mi
11:00 AM71 °FScattered clouds.3 mph55%29.92 "Hg25 mi
10:00 AM70 °FScattered clouds.2 mph50%29.92 "Hg22 mi
9:00 AM69 °FScattered clouds.1 mph54%29.93 "Hg19 mi
8:00 AM66 °FScattered clouds.1 mph64%29.94 "Hg19 mi
7:00 AM63 °FMild.2 mph84%29.93 "Hg12 mi
6:00 AM60 °FCool.1 mph92%29.93 "Hg12 mi
5:00 AM60 °FCool.2 mph90%29.93 "Hg12 mi
4:00 AM62 °FCool.1 mph91%29.93 "Hg12 mi
3:00 AM63 °FMild.2 mph85%29.92 "Hg12 mi
2:00 AM62 °FCool.2 mph90%29.93 "Hg12 mi
1:00 AM61 °FCool.2 mph94%29.94 "Hg12 mi
12:00 AM61 °FCool.2 mph92%29.95 "Hg12 mi
11:00 PM
Fri, Jul 29
62 °FCool.1 mph89%29.94 "Hg12 mi
10:00 PM64 °FPassing clouds.1 mph82%29.93 "Hg19 mi
9:00 PM65 °FOvercast.1 mph78%29.92 "Hg25 mi
8:00 PM69 °FPartly sunny.1 mph69%29.90 "Hg25 mi
7:00 PM69 °FMild.No wind70%29.89 "Hg12 mi
6:00 PM72 °FMild.3 mph55%29.88 "Hg12 mi
5:00 PM73 °FScattered clouds.5 mph53%29.89 "Hg25 mi
Weather by CustomWeather, © 2016

See weather overviewHow to use our weather pages